ONEWEB-0007 (44060 NORAD) Tracking and Keplerian Element Data

This shows tracking and keplerian element data for the satellite.

Feedback or suggestion? Click here.




ElementValue
Catalog44060
NameONEWEB-0007
Epoch Orbit170
Epoch Day304.91667824
Epoch Year2020
RAAN307.3065
Inclination87.9112
Eccentricity0.0001778
Argument of Perigee86.9215
Mean Anonmoly255.3688
Mean Motion13.21793197
Decay Rate0.00046756
L11 44060U 19010D 20304.91667824 .00046756 00000-0 11265+0 0 9999
L22 44060 87.9112 307.3065 0001778 86.9215 255.3688 13.21793197 1700

Live tracking and technical data element details for ONEWEB-0007 (NORAD 44060). ONEWEB-0007 can be tracked NOW for your location showing map with azimuth and elevation plus other details from your city location.

Track the satellite on the map from your city or location and see movement details for azimuth, elevation, latitude, longitude, range, height, and movement on the map or in text.







IsCatalogInMostPopularTable: catalog: 44060, numindb: 283
Update: records affected: 1



GetName: 44060 ONEWEB-0007

Hit Count: updated at: Sat, 31 Oct 2020 12:21:11 GMT